Location: Ariel
(45.9570°N, 122.5700°W)
Time: 06:43:52
(UTC-08:00)

Transit 4A - Pass Details

Date: 01 November 2020
Orbit: 862 x 982 km, 66.8° (Epoch: 03 December)

Event Time Altitude Azimuth Distance (km) Brightness Sun altitude
Rises 20:11:07 0° 325° (NW) 3,693 11.7 -34.3°
Reaches altitude 10° 20:14:59 10° 348° (NNW) 2,745 10.6 -34.9°
Enters shadow 20:16:59 14° 5° (N) 2,449 10.2 -35.3°
